Lacon, IL

5:39 AM CDT on April 23, 2018 (GMT -0500)
Lacon

Weather History for KC75 - November, 2013

Change the Weather History Date:

Monday, November 18, 2013

  Actual Average (KVYS) Record (KVYS)
Temperature  
Mean Temperature 38 °F -  
Max Temperature 45 °F 49 °F 70 °F (1979)
Min Temperature 29 °F 29 °F 10 °F (2014)
Degree Days  
Heating Degree Days 28    
Moisture  
Dew Point 31 °F    
Average Humidity 72    
Maximum Humidity 86    
Minimum Humidity 51    
Precipitation  
Precipitation 0.00 in - - ()
Sea Level Pressure  
Sea Level Pressure 30.09 in    
Wind  
Wind Speed 11 mph (WNW)    
Max Wind Speed 22 mph    
Max Gust Speed 31 mph    
Visibility 10 miles    
Events      
Averages and records for this station are not official NWS values.
T = Trace of Precipitation, MM = Missing Value Source: NWS Daily Summary

Daily Weather History Graph

Daily Weather History Graph

Search for Another Location

Airport or City:

Astronomy

Nov. 18, 2013 Rise Set
Actual Time 6:48 AM CST 4:36 PM CST
Civil Twilight 6:18 AM CST 5:05 PM CST
Nautical Twilight 5:45 AM CST 5:39 PM CST
Astronomical Twilight 5:12 AM CST 6:11 PM CST
Moon 5:38 PM CST (11/18) 7:37 AM CST (11/18)
Length of Visible Light 10h 46m
Length of Day
9h 47m
Full, 99% of the Moon is Illuminated
Nov 18
Full
Nov 25
Last Quarter
Dec 2
New
Dec 9
First Quarter
Dec 17
Full

Hourly Weather History & Observations

Time (CST) Temp. Windchill Dew Point Humidity Pressure Visibility Wind Dir Wind Speed Gust Speed Precip Events Conditions
12:15 AM 43.9 °F 38.3 °F 38.3 °F 81% 29.86 in 10.0 mi West 10.4 mph 18.4 mph N/A   Clear
12:35 AM 43.3 °F 37.7 °F 37.4 °F 80% 29.86 in 10.0 mi West 10.4 mph - N/A   Clear
12:55 AM 43.2 °F 37.9 °F 37.4 °F 80% 29.87 in 10.0 mi West 9.2 mph - N/A   Clear
1:15 AM 42.3 °F 37.3 °F 36.9 °F 81% 29.87 in 10.0 mi West 8.1 mph - N/A   Clear
1:35 AM 42.1 °F 36.6 °F 36.5 °F 81% 29.88 in 10.0 mi West 9.2 mph - N/A   Clear
1:55 AM 41.9 °F 35.4 °F 35.2 °F 77% 29.90 in 10.0 mi West 11.5 mph 17.3 mph N/A   Clear
2:35 AM 41.2 °F 36.0 °F 34.7 °F 78% 29.91 in 10.0 mi West 8.1 mph - N/A   Clear
2:55 AM 40.6 °F 34.8 °F 34.9 °F 80% 29.92 in 10.0 mi West 9.2 mph - N/A   Clear
3:15 AM 40.5 °F 34.6 °F 34.3 °F 79% 29.93 in 10.0 mi West 9.2 mph - N/A   Clear
3:35 AM 40.1 °F 34.7 °F 34.2 °F 79% 29.93 in 10.0 mi West 8.1 mph - N/A   Clear
3:55 AM 39.6 °F 33.5 °F 34.2 °F 81% 29.94 in 10.0 mi West 9.2 mph - N/A   Clear
4:15 AM 39.4 °F 32.7 °F 33.8 °F 80% 29.94 in 10.0 mi West 10.4 mph 18.4 mph N/A   Clear
4:35 AM 39.2 °F 34.2 °F 33.4 °F 80% 29.95 in 10.0 mi West 6.9 mph - N/A   Clear
4:55 AM 38.7 °F 33.6 °F 33.3 °F 81% 29.95 in 10.0 mi West 6.9 mph - N/A   Clear
5:15 AM 38.3 °F 32.5 °F 33.3 °F 82% 29.95 in 10.0 mi West 8.1 mph - N/A   Clear
5:35 AM 37.9 °F 32.7 °F 33.4 °F 84% 29.95 in 10.0 mi West 6.9 mph - N/A   Scattered Clouds
5:55 AM 37.6 °F 31.6 °F 33.4 °F 85% 29.96 in 10.0 mi West 8.1 mph - N/A   Scattered Clouds
6:15 AM 37.6 °F 31.6 °F 33.4 °F 85% 29.97 in 10.0 mi West 8.1 mph - N/A   Clear
6:35 AM 37.6 °F 31.0 °F 33.4 °F 85% 29.98 in 10.0 mi West 9.2 mph - N/A   Clear
6:55 AM 37.4 °F 30.3 °F 33.4 °F 86% 29.99 in 10.0 mi West 10.4 mph - N/A   Clear
7:15 AM 38.3 °F 30.9 °F 33.4 °F 83% 30.00 in 10.0 mi West 11.5 mph 21.9 mph N/A   Mostly Cloudy
7:35 AM 38.3 °F 31.9 °F 34.0 °F 84% 30.00 in 10.0 mi West 9.2 mph - N/A   Mostly Cloudy
7:55 AM 38.5 °F 32.1 °F 33.8 °F 83% 30.01 in 10.0 mi West 9.2 mph 17.3 mph N/A   Scattered Clouds
8:15 AM 39.4 °F 29.8 °F 33.3 °F 79% 30.03 in 10.0 mi WNW 19.6 mph 28.8 mph N/A   Clear
8:55 AM 40.1 °F 31.6 °F 31.8 °F 72% 30.05 in 10.0 mi WNW 16.1 mph 25.3 mph N/A   Clear
9:35 AM 40.6 °F 31.7 °F 31.6 °F 70% 30.07 in 10.0 mi WNW 18.4 mph 27.6 mph N/A   Clear
9:55 AM 41.0 °F 33.5 °F 31.8 °F 70% 30.08 in 10.0 mi WNW 13.8 mph 23.0 mph N/A   Clear
10:15 AM 41.9 °F 33.7 °F 31.8 °F 67% 30.08 in 10.0 mi WNW 17.3 mph 24.2 mph N/A   Clear
10:35 AM 42.6 °F 34.9 °F 31.6 °F 65% 30.09 in 10.0 mi WNW 16.1 mph 25.3 mph N/A   Clear
10:55 AM 43.3 °F 36.1 °F 31.6 °F 63% 30.09 in 10.0 mi WNW 15.0 mph 24.2 mph N/A   Clear
11:15 AM 43.9 °F 36.2 °F 30.9 °F 60% 30.10 in 10.0 mi WNW 17.3 mph 26.5 mph N/A   Clear
11:35 AM 44.8 °F 37.4 °F 31.5 °F 60% 30.10 in 10.0 mi WNW 17.3 mph 25.3 mph N/A   Clear
11:55 AM 45.3 °F 38.4 °F 31.1 °F 58% 30.11 in 10.0 mi WNW 16.1 mph 25.3 mph N/A   Clear
12:15 PM 45.5 °F 37.6 °F 30.2 °F 55% 30.11 in 10.0 mi NW 20.7 mph 31.1 mph N/A   Clear
12:35 PM 45.0 °F 37.9 °F 29.7 °F 55% 30.11 in 10.0 mi WNW 16.1 mph 31.1 mph N/A   Clear
12:55 PM 45.7 °F 38.0 °F 30.9 °F 56% 30.12 in 10.0 mi WNW 19.6 mph 28.8 mph N/A   Clear
1:15 PM 45.7 °F 37.6 °F 30.6 °F 56% 30.13 in 10.0 mi WNW 21.9 mph 28.8 mph N/A   Clear
1:35 PM 45.7 °F 38.8 °F 29.7 °F 54% 30.13 in 10.0 mi WNW 16.1 mph 27.6 mph N/A   Clear
1:55 PM 45.5 °F 38.9 °F 28.6 °F 52% 30.14 in 10.0 mi West 15.0 mph 23.0 mph N/A   Clear
2:35 PM 45.3 °F 37.6 °F 27.9 °F 51% 30.14 in 10.0 mi WNW 19.6 mph 25.3 mph N/A   Clear
2:55 PM 44.8 °F 38.3 °F 29.7 °F 55% 30.15 in 10.0 mi WNW 13.8 mph 20.7 mph N/A   Clear
3:15 PM 44.2 °F 36.7 °F 27.7 °F 52% 30.16 in 10.0 mi WNW 17.3 mph 23.0 mph N/A   Clear
3:35 PM 43.9 °F 37.5 °F 28.8 °F 55% 30.16 in 10.0 mi WNW 12.7 mph 20.7 mph N/A   Clear
3:55 PM 43.0 °F 36.4 °F 28.2 °F 56% 30.17 in 10.0 mi WNW 12.7 mph 18.4 mph N/A   Clear
4:15 PM 41.9 °F 35.4 °F 28.2 °F 58% 30.17 in 10.0 mi WNW 11.5 mph - N/A   Clear
4:35 PM 40.8 °F 34.5 °F 28.0 °F 60% 30.18 in 10.0 mi WNW 10.4 mph 16.1 mph N/A   Clear
4:55 PM 40.6 °F 35.4 °F 27.9 °F 60% 30.18 in 10.0 mi WNW 8.1 mph - N/A   Clear
5:15 PM 39.6 °F 34.7 °F 28.2 °F 64% 30.19 in 10.0 mi WNW 6.9 mph - N/A   Clear
5:35 PM 39.2 °F 33.0 °F 28.4 °F 65% 30.20 in 10.0 mi West 9.2 mph - N/A   Clear
5:55 PM 38.5 °F 32.7 °F 28.4 °F 67% 30.21 in 10.0 mi WNW 8.1 mph - N/A   Clear
6:15 PM 37.8 °F 32.5 °F 28.8 °F 70% 30.21 in 10.0 mi WNW 6.9 mph - N/A   Clear
6:35 PM 37.0 °F 31.6 °F 28.4 °F 71% 30.21 in 10.0 mi WNW 6.9 mph - N/A   Clear
6:55 PM 36.5 °F 31.0 °F 28.4 °F 72% 30.22 in 10.0 mi WNW 6.9 mph - N/A   Clear
7:15 PM 35.6 °F 28.6 °F 28.2 °F 75% 30.23 in 10.0 mi WNW 9.2 mph - N/A   Clear
7:35 PM 35.6 °F 29.2 °F 27.7 °F 73% 30.24 in 10.0 mi WNW 8.1 mph - N/A   Clear
7:55 PM 36.0 °F 29.6 °F 27.5 °F 71% 30.24 in 10.0 mi NW 8.1 mph - N/A   Clear
8:15 PM 35.2 °F 30.3 °F 27.3 °F 73% 30.24 in 10.0 mi NW 5.8 mph - N/A   Clear
8:55 PM 33.8 °F 30.8 °F 27.1 °F 77% 30.25 in 10.0 mi NW 3.5 mph - N/A   Clear
9:15 PM 33.3 °F 30.2 °F 27.1 °F 78% 30.26 in 10.0 mi North 3.5 mph - N/A   Clear
9:35 PM 32.4 °F 27.9 °F 26.6 °F 79% 30.26 in 10.0 mi NNW 4.6 mph - N/A   Clear
9:55 PM 31.8 °F 28.5 °F 25.9 °F 79% 30.26 in 10.0 mi NW 3.5 mph - N/A   Clear
10:15 PM 32.0 °F 27.5 °F 26.4 °F 80% 30.26 in 10.0 mi NW 4.6 mph - N/A   Clear
10:35 PM 31.6 °F 26.0 °F 26.2 °F 80% 30.27 in 10.0 mi NNW 5.8 mph - N/A   Clear
10:55 PM 30.9 °F 27.5 °F 25.9 °F 82% 30.27 in 10.0 mi NW 3.5 mph - N/A   Clear
11:15 PM 30.0 °F 25.2 °F 26.2 °F 86% 30.28 in 10.0 mi WNW 4.6 mph - N/A   Clear
11:35 PM 30.2 °F 24.3 °F 25.9 °F 84% 30.28 in 10.0 mi WNW 5.8 mph - N/A   Clear
11:55 PM 29.8 °F 23.0 °F 26.1 °F 86% 30.28 in 10.0 mi WNW 6.9 mph - N/A   Clear